Location: Gwatt
(46.7204°N, 7.6223°E)
Time: 16:32:21
(UTC+00:00)

Cosmos 1674 - Pass Details

Date: 18 September 2020
Orbit: 494 x 518 km, 82.5° (Epoch: 29 October)

Event Time Altitude Azimuth Distance (km) Brightness Sun altitude
Rises 19:03:02 0° 358° (N) 2,654 6.6 -15.7°
Reaches altitude 10° 19:05:19 10° 7° (N) 1,762 5.6 -16.0°
Maximum altitude 19:08:54 36° 75° (ENE) 837 3.3 -16.6°
Enters shadow 19:09:21 35° 92° (E) 857 3.3 -16.7°
